Weather History for Imperial, CA

Change the Weather History Date:

Sunday, December 23, 2012

  Actual Average Record
Temperature  
Mean Temperature 52 °F -  
Max Temperature 66 °F 67 °F 84 °F (1955)
Min Temperature 39 °F 40 °F 21 °F (1990)
Degree Days  
Heating Degree Days 12    
Growing Degree Days 2 (Base 50)    
Moisture  
Dew Point 38 °F    
Average Humidity 56    
Maximum Humidity 73    
Minimum Humidity 39    
Precipitation  
Precipitation 0.00 in - - ()
Sea Level Pressure  
Sea Level Pressure 30.08 in    
Wind  
Wind Speed 2 mph (SSW)    
Max Wind Speed 14 mph    
Max Gust Speed -    
Visibility 9 miles    
Events      
Averages and records for this station are not official NWS values.
T = Trace of Precipitation, MM = Missing Value Source: NWS Daily Summary

Daily Weather History Graph

Daily Weather History Graph

Search for Another Location

Airport:

Trip Planner

Search our weather history database for the weather conditions in past years. The results will help you decide how hot, cold, wet, or windy it might be!

Date:

Astronomy

Dec. 23, 2012 Rise Set
Actual Time 6:42 AM PST 4:41 PM PST
Civil Twilight 6:14 AM PST 5:08 PM PST
Nautical Twilight 5:43 AM PST 5:39 PM PST
Astronomical Twilight 5:13 AM PST 6:09 PM PST
Moon 1:29 PM PST (12/23) 2:35 AM PST (12/23)
Length of Visible Light 10h 54m
Length of Day
9h 59m
Waxing Gibbous, 82% of the Moon is Illuminated
Dec 23
Waxing Gibbous
Dec 28
Full
Jan 4
Last Quarter
Jan 11
New
Jan 18
First Quarter

Hourly Weather History & Observations

Time (PST) Temp. Windchill Dew Point Humidity Pressure Visibility Wind Dir Wind Speed Gust Speed Precip Events Conditions
12:53 AM 41.0 °F - 30.9 °F 67% 30.10 in 10.0 mi Calm Calm - N/A   Clear
1:53 AM 41.0 °F - 30.9 °F 67% 30.10 in 10.0 mi Calm Calm - N/A   Clear
2:53 AM 42.1 °F 38.4 °F 30.9 °F 65% 30.10 in 10.0 mi SSW 5.8 mph - N/A   Clear
3:53 AM 43.0 °F - 32.0 °F 65% 30.10 in 7.0 mi Calm Calm - N/A   Clear
4:53 AM 39.0 °F - 30.9 °F 73% 30.09 in 6.0 mi Calm Calm - N/A   Haze
5:53 AM 39.9 °F - 30.9 °F 70% 30.11 in 8.0 mi Calm Calm - N/A   Clear
6:53 AM 39.0 °F - 30.9 °F 73% 30.13 in 6.0 mi Calm Calm - N/A   Haze
7:53 AM 44.1 °F - 32.0 °F 63% 30.14 in 10.0 mi Calm Calm - N/A   Clear
8:53 AM 50.0 °F - 35.1 °F 57% 30.15 in 10.0 mi South 3.5 mph - N/A   Clear
9:53 AM 55.0 °F - 39.0 °F 55% 30.15 in 6.0 mi SE 3.5 mph - N/A   Haze
10:53 AM 61.0 °F - 37.0 °F 41% 30.14 in 10.0 mi Calm Calm - N/A   Clear
11:53 AM 62.1 °F - 39.0 °F 43% 30.10 in 10.0 mi Calm Calm - N/A   Clear
12:53 PM 64.9 °F - 41.0 °F 42% 30.07 in 10.0 mi ENE 3.5 mph - N/A   Clear
1:53 PM 66.0 °F - 41.0 °F 40% 30.06 in 10.0 mi Calm Calm - N/A   Clear
2:53 PM 66.9 °F - 41.0 °F 39% 30.03 in 10.0 mi Calm Calm - N/A   Clear
3:53 PM 66.0 °F - 42.1 °F 42% 30.04 in 10.0 mi Calm Calm - N/A   Clear
4:53 PM 64.0 °F - 41.0 °F 43% 30.03 in 10.0 mi ESE 4.6 mph - N/A   Clear
5:53 PM 60.1 °F - 42.1 °F 51% 30.03 in 10.0 mi South 4.6 mph - N/A   Clear
6:53 PM 55.9 °F - 42.1 °F 60% 30.05 in 10.0 mi West 4.6 mph - N/A   Clear
7:53 PM 57.0 °F - 42.1 °F 57% 30.06 in 10.0 mi WSW 10.4 mph - N/A   Clear
8:53 PM 57.9 °F - 42.1 °F 56% 30.06 in 10.0 mi SSW 10.4 mph - N/A   Clear
9:53 PM 55.9 °F - 42.1 °F 60% 30.06 in 10.0 mi WSW 8.1 mph - N/A   Clear
10:53 PM 55.9 °F - 43.0 °F 62% 30.06 in 10.0 mi WSW 10.4 mph - N/A   Clear
11:53 PM 55.0 °F - 42.1 °F 62% 30.06 in 10.0 mi West 13.8 mph - N/A   Clear